Location: Miles
(41.4492°N, 81.6087°W)
Time: 22:00:16
(UTC+00:00)

Courier 1B - Pass Details

Date: 13 September 2024
Orbit: 962 x 1208 km, 28.3° (Epoch: 06 October)

Event Time Altitude Azimuth Distance (km) Brightness Sun altitude
Rises 00:53:35 0° 259° (WSW) 4,092 11.9 -14.3°
Reaches altitude 10° 00:57:16 10° 243° (WSW) 3,139 10.8 -15.0°
Maximum altitude 01:02:40 20° 200° (SSW) 2,445 9.6 -15.9°
Enters shadow 01:07:57 10° 156° (SSE) 3,098 9.7 -16.9°
